| time (UTC) | temp C | wind direction | speed KPH | gust KPH | rain 1hr cm | rain 24hr cm | rain mn cm | humidity % | barometer mb |
| 20260506211825 | 3 | 229 | 1.6 | 3.2 | 0.00 | 0.00 | 0.00 | 78 | 1008.8 |
| 20260506210925 | 3 | 135 | 0.0 | 3.2 | 0.00 | 0.00 | 0.00 | 76 | 1008.5 |
| 20260506210026 | 3 | 202 | 0.0 | 1.6 | 0.00 | 0.00 | 0.00 | 76 | 1008.6 |
| 20260506205335 | 3 | 202 | 0.0 | 1.6 | 0.00 | 0.00 | 0.00 | 75 | 1008.6 |
| 20260506204227 | 3 | 207 | 1.6 | 3.2 | 0.00 | 0.00 | 0.00 | 75 | 1008.5 |
| 20260506203325 | 3 | 184 | 3.2 | 3.2 | 0.00 | 0.00 | 0.00 | 74 | 1008.4 |
| 20260506202425 | 3 | 184 | 1.6 | 3.2 | 0.00 | 0.00 | 0.00 | 73 | 1008.4 |
| 20260506201526 | 3 | 176 | 0.0 | 3.2 | 0.00 | 0.00 | 0.00 | 71 | 1008.5 |
| 20260506200837 | 4 | 146 | 3.2 | 3.2 | 0.00 | 0.00 | 0.00 | 70 | 1008.6 |
| 20260506195728 | 4 | 170 | 3.2 | 4.8 | 0.00 | 0.00 | 0.00 | 68 | 1008.7 |
| 20260506194825 | 5 | 173 | 3.2 | 4.8 | 0.00 | 0.00 | 0.00 | 68 | 1008.6 |
| 20260506194139 | 5 | 168 | 3.2 | 4.8 | 0.00 | 0.00 | 0.00 | 65 | 1008.6 |
| 20260506193026 | 5 | 191 | 3.2 | 4.8 | 0.00 | 0.00 | 0.00 | 63 | 1008.8 |
| 20260506192125 | 5 | 341 | 3.2 | 4.8 | 0.00 | 0.00 | 0.00 | 62 | 1008.7 |
| 20260506191227 | 5 | 340 | 3.2 | 4.8 | 0.00 | 0.00 | 0.00 | 62 | 1008.7 |
| 20260506190326 | 5 | 340 | 4.8 | 6.4 | 0.00 | 0.00 | 0.00 | 62 | 1008.5 |
| 20260506185425 | 5 | 329 | 4.8 | 6.4 | 0.00 | 0.00 | 0.00 | 61 | 1008.5 |
| 20260506184526 | 6 | 341 | 4.8 | 6.4 | 0.00 | 0.00 | 0.00 | 60 | 1008.7 |
| 20260506183625 | 6 | 309 | 6.4 | 6.4 | 0.00 | 0.00 | 0.00 | 61 | 1008.4 |
| 20260506182726 | 6 | 333 | 4.8 | 6.4 | 0.00 | 0.00 | 0.00 | 61 | 1008.4 |
| 20260506181826 | 6 | 327 | 4.8 | 6.4 | 0.00 | 0.00 | 0.00 | 61 | 1008.3 |
| 20260506180925 | 6 | 317 | 4.8 | 6.4 | 0.00 | 0.00 | 0.00 | 60 | 1008.4 |
| 20260506180025 | 6 | 305 | 4.8 | 6.4 | 0.00 | 0.00 | 0.00 | 59 | 1008.3 |
| 20260506175125 | 7 | 298 | 4.8 | 6.4 | 0.00 | 0.00 | 0.00 | 57 | 1008.4 |
| 20260506174227 | 7 | 307 | 3.2 | 6.4 | 0.00 | 0.00 | 0.00 | 55 | 1008.3 |
| 20260506173325 | 7 | 301 | 3.2 | 6.4 | 0.00 | 0.00 | 0.00 | 53 | 1008.5 |
| 20260506172425 | 7 | 278 | 4.8 | 6.4 | 0.00 | 0.00 | 0.00 | 51 | 1008.6 |
| 20260506171525 | 7 | 315 | 3.2 | 4.8 | 0.00 | 0.00 | 0.00 | 50 | 1008.5 |
| 20260506170625 | 7 | 286 | 3.2 | 6.4 | 0.00 | 0.00 | 0.00 | 51 | 1008.4 |
| 20260506165727 | 8 | 323 | 3.2 | 6.4 | 0.00 | 0.00 | 0.00 | 50 | 1008.3 |
| 20260506164825 | 8 | 284 | 4.8 | 8.0 | 0.00 | 0.00 | 0.00 | 47 | 1008.8 |
| 20260506163926 | 8 | 299 | 4.8 | 8.0 | 0.00 | 0.00 | 0.00 | 46 | 1008.5 |
| 20260506163025 | 9 | 278 | 6.4 | 9.7 | 0.00 | 0.00 | 0.00 | 43 | 1008.5 |
| 20260506162126 | 9 | 302 | 8.0 | 11.3 | 0.00 | 0.00 | 0.00 | 41 | 1008.5 |
| 20260506161225 | 10 | 296 | 8.0 | 12.9 | 0.00 | 0.00 | 0.00 | 40 | 1008.6 |
| 20260506160326 | 10 | 304 | 6.4 | 11.3 | 0.00 | 0.00 | 0.00 | 42 | 1008.6 |
| 20260506155426 | 10 | 335 | 6.4 | 11.3 | 0.00 | 0.00 | 0.00 | 47 | 1008.7 |
| 20260506154735 | 9 | 301 | 6.4 | 11.3 | 0.00 | 0.00 | 0.00 | 49 | 1008.5 |
| 20260506153625 | 9 | 303 | 9.7 | 12.9 | 0.00 | 0.00 | 0.00 | 49 | 1008.7 |
| 20260506152726 | 10 | 294 | 8.0 | 12.9 | 0.00 | 0.00 | 0.00 | 47 | 1008.9 |
| 20260506152037 | 10 | 293 | 8.0 | 11.3 | 0.00 | 0.00 | 0.00 | 46 | 1009.0 |
| 20260506151139 | 10 | 298 | 8.0 | 12.9 | 0.00 | 0.00 | 0.00 | 48 | 1008.8 |
| 20260506150236 | 9 | 293 | 9.7 | 12.9 | 0.00 | 0.00 | 0.00 | 50 | 1009.1 |
| 20260506145125 | 9 | 283 | 9.7 | 11.3 | 0.00 | 0.00 | 0.00 | 50 | 1008.8 |
| 20260506144225 | 9 | 294 | 9.7 | 12.9 | 0.00 | 0.00 | 0.00 | 51 | 1009.0 |
| 20260506143326 | 9 | 295 | 9.7 | 12.9 | 0.00 | 0.00 | 0.00 | 50 | 1009.1 |
| 20260506142636 | 8 | 291 | 12.9 | 17.7 | 0.00 | 0.00 | 0.00 | 45 | 1009.0 |
| 20260506141525 | 10 | 286 | 11.3 | 12.9 | 0.00 | 0.00 | 0.00 | 43 | 1009.4 |
| 20260506140625 | 10 | 304 | 11.3 | 16.1 | 0.00 | 0.00 | 0.00 | 41 | 1009.4 |
| 20260506135725 | 10 | 274 | 12.9 | 17.7 | 0.00 | 0.00 | 0.00 | 39 | 1009.1 |
| 20260506134825 | 10 | 289 | 11.3 | 16.1 | 0.00 | 0.00 | 0.00 | 38 | 1009.2 |
| 20260506133925 | 11 | 285 | 11.3 | 16.1 | 0.00 | 0.00 | 0.00 | 34 | 1009.3 |
| 20260506133025 | 11 | 290 | 9.7 | 14.5 | 0.00 | 0.00 | 0.00 | 37 | 1009.0 |
| 20260506132126 | 10 | 310 | 12.9 | 17.7 | 0.00 | 0.00 | 0.00 | 40 | 1009.1 |
| 20260506131230 | 10 | 280 | 12.9 | 17.7 | 0.00 | 0.00 | 0.00 | 35 | 1009.0 |
| 20260506130325 | 11 | 285 | 12.9 | 17.7 | 0.00 | 0.00 | 0.00 | 32 | 1009.3 |
| 20260506125425 | 12 | 302 | 16.1 | 17.7 | 0.00 | 0.00 | 0.00 | 28 | 1009.0 |
| 20260506124525 | 12 | 297 | 12.9 | 16.1 | 0.00 | 0.00 | 0.00 | 31 | 1008.7 |
| 20260506123839 | 11 | 288 | 11.3 | 17.7 | 0.00 | 0.00 | 0.00 | 31 | 1008.8 |
| 20260506122727 | 11 | 313 | 14.5 | 17.7 | 0.00 | 0.00 | 0.00 | 30 | 1009.1 |
| 20260506121826 | 12 | 288 | 11.3 | 16.1 | 0.00 | 0.00 | 0.00 | 29 | 1009.1 |
| 20260506120926 | 12 | 305 | 12.9 | 17.7 | 0.00 | 0.00 | 0.00 | 30 | 1009.1 |
| 20260506120025 | 11 | 292 | 14.5 | 17.7 | 0.00 | 0.00 | 0.00 | 29 | 1009.0 |
| 20260506115336 | 12 | 289 | 16.1 | 19.3 | 0.00 | 0.00 | 0.00 | 28 | 1008.9 |
| 20260506114226 | 13 | 315 | 12.9 | 17.7 | 0.00 | 0.00 | 0.00 | 32 | 1009.0 |
| 20260506113325 | 13 | 321 | 12.9 | 17.7 | 0.00 | 0.00 | 0.00 | 32 | 1009.1 |
| 20260506112426 | 12 | 309 | 12.9 | 17.7 | 0.00 | 0.00 | 0.00 | 30 | 1009.2 |
| 20260506111525 | 12 | 297 | 14.5 | 17.7 | 0.00 | 0.00 | 0.00 | 28 | 1009.2 |
| 20260506110625 | 12 | 298 | 14.5 | 17.7 | 0.00 | 0.00 | 0.00 | 29 | 1009.2 |
| 20260506105725 | 12 | 296 | 14.5 | 17.7 | 0.00 | 0.00 | 0.00 | 29 | 1009.1 |
| 20260506104825 | 12 | 322 | 14.5 | 24.1 | 0.00 | 0.00 | 0.00 | 31 | 1009.3 |
| 20260506104139 | 11 | 279 | 16.1 | 20.9 | 0.00 | 0.00 | 0.00 | 31 | 1009.2 |
| 20260506103025 | 11 | 282 | 16.1 | 22.5 | 0.00 | 0.00 | 0.00 | 33 | 1009.0 |
| 20260506102125 | 11 | 285 | 16.1 | 17.7 | 0.00 | 0.00 | 0.00 | 32 | 1009.2 |
| 20260506101226 | 11 | 277 | 14.5 | 17.7 | 0.00 | 0.00 | 0.00 | 34 | 1009.1 |
| 20260506100325 | 11 | 306 | 14.5 | 20.9 | 0.00 | 0.00 | 0.00 | 39 | 1009.1 |
| 20260506095425 | 11 | 291 | 16.1 | 20.9 | 0.00 | 0.00 | 0.00 | 37 | 1009.0 |
| 20260506094525 | 11 | 294 | 14.5 | 20.9 | 0.00 | 0.00 | 0.00 | 40 | 1009.1 |
| 20260506093625 | 10 | 302 | 17.7 | 19.3 | 0.00 | 0.00 | 0.00 | 40 | 1008.9 |
| 20260506092727 | 10 | 281 | 17.7 | 24.1 | 0.00 | 0.00 | 0.00 | 38 | 1009.0 |
| 20260506092035 | 11 | 289 | 14.5 | 24.1 | 0.00 | 0.00 | 0.00 | 39 | 1008.9 |
| 20260506091138 | 10 | 288 | 14.5 | 19.3 | 0.00 | 0.00 | 0.00 | 40 | 1008.9 |
| 20260506090025 | 10 | 259 | 17.7 | 22.5 | 0.00 | 0.00 | 0.00 | 38 | 1008.5 |
| 20260506085125 | 10 | 302 | 16.1 | 22.5 | 0.00 | 0.00 | 0.00 | 42 | 1008.8 |
| 20260506084227 | 10 | 289 | 12.9 | 17.7 | 0.00 | 0.00 | 0.00 | 46 | 1008.3 |
| 20260506083325 | 10 | 286 | 12.9 | 17.7 | 0.00 | 0.00 | 0.00 | 45 | 1008.6 |
| 20260506082425 | 10 | 294 | 12.9 | 17.7 | 0.00 | 0.00 | 0.00 | 42 | 1008.3 |
| 20260506081525 | 10 | 286 | 12.9 | 19.3 | 0.00 | 0.00 | 0.00 | 43 | 1008.5 |
| 20260506080625 | 10 | 300 | 12.9 | 16.1 | 0.00 | 0.00 | 0.00 | 39 | 1008.5 |
| 20260506073239 | 9 | 303 | 14.5 | 17.7 | 0.00 | 0.00 | 0.00 | 44 | 1008.3 |
| 20260506072125 | 9 | 294 | 14.5 | 17.7 | 0.00 | 0.00 | 0.00 | 47 | 1007.9 |
| 20260506071226 | 8 | 286 | 16.1 | 19.3 | 0.00 | 0.00 | 0.00 | 52 | 1008.0 |
| 20260506070325 | 9 | 273 | 14.5 | 17.7 | 0.00 | 0.00 | 0.00 | 55 | 1007.9 |
| 20260506061825 | 9 | 236 | 11.3 | 14.5 | 0.00 | 0.00 | 0.00 | 71 | 1007.9 |
| 20260506061135 | 7 | 276 | 12.9 | 17.7 | 0.00 | 0.00 | 0.00 | 73 | 1007.7 |
| 20260506050625 | 7 | 264 | 16.1 | 22.5 | 0.00 | 0.00 | 0.00 | 83 | 1007.3 |
| 20260506044825 | 6 | 261 | 12.9 | 19.3 | 0.00 | 0.00 | 0.00 | 90 | 1007.2 |
| 20260506043925 | 5 | 325 | 14.5 | 19.3 | 0.00 | 0.00 | 0.00 | 92 | 1007.0 |
| 20260506043025 | 5 | 297 | 14.5 | 19.3 | 0.00 | 0.00 | 0.00 | 93 | 1006.8 |
| 20260506042125 | 5 | 242 | 11.3 | 19.3 | 0.00 | 0.00 | 0.00 | 94 | 1007.0 |
| 20260506041440 | 5 | 232 | 11.3 | 16.1 | 0.00 | 0.00 | 0.00 | 94 | 1006.7 |
| 20260506040325 | 5 | 235 | 9.7 | 12.9 | 0.00 | 0.00 | 0.00 | 95 | 1006.5 |
| 20260506035425 | 5 | 240 | 9.7 | 17.7 | 0.00 | 0.00 | 0.00 | 96 | 1006.5 |
| 20260506034525 | 5 | 294 | 12.9 | 19.3 | 0.00 | 0.00 | 0.00 | 98 | 1006.4 |
| 20260506033625 | 4 | 260 | 12.9 | 19.3 | 0.00 | 0.00 | 0.00 | 99 | 1006.4 |
| 20260506032726 | 3 | 267 | 9.7 | 12.9 | 0.00 | 0.00 | 0.00 | 99 | 1006.2 |
| 20260506031825 | 3 | 265 | 9.7 | 12.9 | 0.00 | 0.00 | 0.00 | 99 | 1006.2 |
| 20260506030926 | 3 | 243 | 6.4 | 12.9 | 0.00 | 0.00 | 0.00 | 99 | 1006.3 |
| 20260506030025 | 2 | 250 | 4.8 | 6.4 | 0.00 | 0.00 | 0.00 | 97 | 1005.9 |
| 20260506025125 | 1 | 232 | 3.2 | 6.4 | 0.00 | 0.00 | 0.00 | 97 | 1005.9 |
| 20260506024227 | 1 | 223 | 3.2 | 4.8 | 0.00 | 0.00 | 0.00 | 97 | 1005.8 |
| 20260506023325 | 1 | 251 | 3.2 | 6.4 | 0.00 | 0.00 | 0.00 | 97 | 1005.7 |
| 20260506022638 | 1 | 260 | 3.2 | 4.8 | 0.00 | 0.00 | 0.00 | 97 | 1005.5 |
| 20260506021525 | 1 | 208 | 4.8 | 6.4 | 0.00 | 0.00 | 0.00 | 97 | 1005.6 |
| 20260506020626 | 1 | 221 | 3.2 | 3.2 | 0.00 | 0.00 | 0.00 | 97 | 1005.5 |
| 20260506015725 | 1 | 212 | 3.2 | 3.2 | 0.00 | 0.00 | 0.00 | 97 | 1005.4 |
| 20260506014825 | 1 | 248 | 3.2 | 3.2 | 0.00 | 0.00 | 0.00 | 96 | 1005.1 |
| 20260506013925 | 1 | 275 | 3.2 | 4.8 | 0.00 | 0.00 | 0.00 | 96 | 1005.0 |
| 20260506013237 | 2 | 269 | 4.8 | 6.4 | 0.00 | 0.00 | 0.00 | 95 | 1005.1 |
| 20260506012335 | 2 | 269 | 4.8 | 6.4 | 0.00 | 0.00 | 0.00 | 95 | 1005.3 |
| 20260506011226 | 2 | 261 | 4.8 | 6.4 | 0.00 | 0.00 | 0.00 | 96 | 1005.0 |
| 20260506010325 | 2 | 274 | 6.4 | 6.4 | 0.00 | 0.00 | 0.00 | 99 | 1005.0 |
| 20260506005426 | 2 | 275 | 6.4 | 8.0 | 0.00 | 0.00 | 0.00 | 99 | 1004.9 |
| 20260506004739 | 2 | 257 | 6.4 | 8.0 | 0.00 | 0.00 | 0.00 | 99 | 1005.0 |
| 20260506003626 | 3 | 256 | 6.4 | 8.0 | 0.00 | 0.00 | 0.00 | 99 | 1004.7 |
| 20260506002727 | 3 | 271 | 6.4 | 8.0 | 0.00 | 0.00 | 0.00 | 98 | 1004.7 |
| 20260506001826 | 3 | 234 | 6.4 | 9.7 | 0.00 | 0.00 | 0.00 | 98 | 1004.7 |
| 20260506000925 | 3 | 262 | 4.8 | 8.0 | 0.00 | 0.00 | 0.00 | 98 | 1004.6 |
| 20260506000026 | 3 | 258 | 4.8 | 8.0 | 0.00 | 0.00 | 0.00 | 98 | 1004.4 |
| 20260505235125 | 3 | 270 | 6.4 | 8.0 | 0.00 | 0.00 | 0.00 | 97 | 1004.4 |
| 20260505234441 | 3 | 264 | 6.4 | 11.3 | 0.00 | 0.00 | 0.00 | 97 | 1004.2 |
| 20260505233325 | 3 | 254 | 8.0 | 12.9 | 0.00 | 0.00 | 0.00 | 97 | 1004.2 |
| 20260505232635 | 3 | 263 | 8.0 | 12.9 | 0.00 | 0.00 | 0.00 | 97 | 1004.1 |
| 20260505231526 | 3 | 282 | 8.0 | 11.3 | 0.00 | 0.13 | 0.00 | 95 | 1004.1 |
| 20260505230625 | 3 | 267 | 9.7 | 14.5 | 0.00 | 0.13 | 0.00 | 95 | 1004.2 |
| 20260505225726 | 4 | 276 | 11.3 | 14.5 | 0.00 | 0.13 | 0.00 | 95 | 1004.2 |
| 20260505225035 | 4 | 263 | 11.3 | 14.5 | 0.00 | 0.13 | 0.00 | 94 | 1004.0 |
| 20260505223925 | 4 | 275 | 9.7 | 17.7 | 0.00 | 0.13 | 0.00 | 94 | 1004.2 |
| 20260505223025 | 4 | 274 | 11.3 | 12.9 | 0.00 | 0.13 | 0.00 | 93 | 1004.0 |
| 20260505222126 | 4 | 266 | 11.3 | 16.1 | 0.00 | 0.13 | 0.00 | 93 | 1003.8 |
| 20260505221227 | 4 | 286 | 12.9 | 17.7 | 0.00 | 0.13 | 0.00 | 93 | 1003.8 |
| 20260505220326 | 4 | 280 | 12.9 | 17.7 | 0.00 | 0.13 | 0.00 | 92 | 1003.7 |
| 20260505215425 | 4 | 273 | 12.9 | 17.7 | 0.00 | 0.13 | 0.00 | 91 | 1003.8 |
| 20260505214525 | 4 | 292 | 12.9 | 17.7 | 0.00 | 0.13 | 0.00 | 90 | 1003.5 |
| 20260505213626 | 4 | 259 | 12.9 | 16.1 | 0.00 | 0.13 | 0.00 | 90 | 1003.7 |
| 20260505212941 | 4 | 271 | 12.9 | 16.1 | 0.00 | 0.13 | 0.00 | 90 | 1003.6 |